GSAT-30

Last updated on Thu Oct 30 2025 00:02:51 GMT+0000 (Coordinated Universal Time)

1 45026U 20005A 25302.41621742 -.00000155 00000+0 00000+0 0 9993 2 45026 0.0384 77.4999 0002182 109.0563 84.3392 1.00271487 21198
UTC large
Height (km)
Speed (km/s)
/
Latitude / Longitude
Inclination (degrees)
Orbital Period (minutes)
Azimuth
Elevation
Range (km)
Doppler Factor

Next 0 passes for location: London (51.5072 / 0.1276)

Sorry there are no passes over London.